Location: Bear Trap Landing
(45.2437°N, 67.7928°W)
Time: 00:49:47
(UTC+00:00)

X-37B - Pass Details

Date: 15 March 2021
Orbit: 380 x 394 km, 45.0° (Epoch: 07 April)

Event Time Altitude Azimuth Distance (km) Brightness Sun altitude
Rises 00:08:07 0° 254° (WSW) 2,267 5.5 -16.8°
Reaches altitude 10° 00:10:11 10° 252° (WSW) 1,417 4.3 -17.2°
Maximum altitude 00:13:22 70° 168° (SSE) 418 0.5 -17.7°
Enters shadow 00:13:40 63° 125° (SE) 438 0.5 -17.8°
